Time,TemperatureF,DewpointF,PressureIn,WindDirection,WindDirectionDegrees,WindSpeedMPH,WindSpeedGustMPH,Humidity,HourlyPrecipIn,Conditions,Clouds,dailyrainin,SoftwareType,DateUTC
2014-03-05 00:13:00,27.4,16.0,30.13,SE,132,6.0,7.0,63,0.00,,,0.00,weatherlink.com 1.10,2014-03-05 06:13:00,
2014-03-05 00:28:00,27.0,16.0,30.13,ESE,113,4.0,6.0,64,0.00,,,0.00,weatherlink.com 1.10,2014-03-05 06:28:00,
2014-03-05 00:43:00,26.8,16.0,30.13,ESE,112,6.0,6.0,65,0.00,,,0.00,weatherlink.com 1.10,2014-03-05 06:43:00,
2014-03-05 00:58:00,26.6,16.0,30.14,ESE,120,3.0,4.0,65,0.00,,,0.00,weatherlink.com 1.10,2014-03-05 06:58:00,
2014-03-05 01:13:00,26.1,16.0,30.14,ESE,121,3.0,6.0,66,0.00,,,0.00,weatherlink.com 1.10,2014-03-05 07:13:00,
2014-03-05 01:28:00,25.9,16.0,30.14,ESE,118,2.0,4.0,67,0.00,,,0.00,weatherlink.com 1.10,2014-03-05 07:28:00,
2014-03-05 01:43:00,25.7,16.0,30.14,ESE,120,3.0,4.0,67,0.00,,,0.00,weatherlink.com 1.10,2014-03-05 07:43:00,
2014-03-05 01:58:00,25.5,16.0,30.14,ESE,117,4.0,5.0,68,0.00,,,0.00,weatherlink.com 1.10,2014-03-05 07:58:00,
2014-03-05 02:13:00,25.4,16.0,30.14,ESE,118,4.0,5.0,68,0.00,,,0.00,weatherlink.com 1.10,2014-03-05 08:13:00,
2014-03-05 02:28:00,25.4,16.0,30.13,ESE,112,4.0,5.0,68,0.00,,,0.00,weatherlink.com 1.10,2014-03-05 08:28:00,
2014-03-05 02:43:00,25.3,16.0,30.13,ESE,119,4.0,5.0,68,0.00,,,0.00,weatherlink.com 1.10,2014-03-05 08:43:00,
2014-03-05 02:58:00,25.2,16.0,30.14,ESE,116,2.0,4.0,67,0.00,,,0.00,weatherlink.com 1.10,2014-03-05 08:58:00,
2014-03-05 03:13:00,25.0,16.0,30.14,ESE,121,1.0,2.0,68,0.00,,,0.00,weatherlink.com 1.10,2014-03-05 09:13:00,
2014-03-05 03:28:00,24.9,16.0,30.14,ESE,110,3.0,3.0,68,0.00,,,0.00,weatherlink.com 1.10,2014-03-05 09:28:00,
2014-03-05 03:43:00,24.9,16.0,30.14,East,101,3.0,4.0,68,0.00,,,0.00,weatherlink.com 1.10,2014-03-05 09:43:00,
2014-03-05 03:58:00,24.8,16.0,30.14,East,98,1.0,2.0,68,0.00,,,0.00,weatherlink.com 1.10,2014-03-05 09:58:00,
2014-03-05 04:13:00,25.0,16.0,30.15,ESE,105,2.0,2.0,68,0.00,,,0.00,weatherlink.com 1.10,2014-03-05 10:13:00,
2014-03-05 04:29:00,24.8,15.0,30.16,East,100,1.0,2.0,67,0.00,,,0.00,weatherlink.com 1.10,2014-03-05 10:29:00,
2014-03-05 04:44:00,24.7,15.0,30.16,ESE,107,2.0,3.0,68,0.00,,,0.00,weatherlink.com 1.10,2014-03-05 10:44:00,
2014-03-05 04:59:00,24.4,15.0,30.16,East,91,2.0,3.0,68,0.00,,,0.00,weatherlink.com 1.10,2014-03-05 10:59:00,
2014-03-05 05:14:00,24.0,15.0,30.17,ENE,71,1.0,2.0,68,0.00,,,0.00,weatherlink.com 1.10,2014-03-05 11:14:00,
2014-03-05 05:29:00,23.5,15.0,30.17,ENE,65,1.0,1.0,69,0.00,,,0.00,weatherlink.com 1.10,2014-03-05 11:29:00,
2014-03-05 05:44:00,22.6,15.0,30.17,NE,43,0.0,1.0,71,0.00,,,0.00,weatherlink.com 1.10,2014-03-05 11:44:00,
2014-03-05 05:59:00,23.1,14.0,30.18,NE,43,1.0,1.0,69,0.00,,,0.00,weatherlink.com 1.10,2014-03-05 11:59:00,
2014-03-05 06:14:00,23.0,14.0,30.18,ENE,69,2.0,2.0,69,0.00,,,0.00,weatherlink.com 1.10,2014-03-05 12:14:00,
2014-03-05 06:29:00,23.2,14.0,30.18,East,84,2.0,3.0,69,0.00,,,0.00,weatherlink.com 1.10,2014-03-05 12:29:00,
2014-03-05 06:44:00,22.9,14.0,30.18,ESE,113,2.0,2.0,69,0.00,,,0.00,weatherlink.com 1.10,2014-03-05 12:44:00,
2014-03-05 06:59:00,23.2,14.0,30.18,ESE,113,2.0,3.0,68,0.00,,,0.00,weatherlink.com 1.10,2014-03-05 12:59:00,
2014-03-05 07:14:00,24.4,14.0,30.18,ESE,116,2.0,2.0,66,0.00,,,0.00,weatherlink.com 1.10,2014-03-05 13:14:00,
2014-03-05 07:29:00,25.5,14.0,30.18,ESE,117,2.0,3.0,63,0.00,,,0.00,weatherlink.com 1.10,2014-03-05 13:29:00,
2014-03-05 07:44:00,26.5,15.0,30.19,ESE,117,2.0,3.0,62,0.00,,,0.00,weatherlink.com 1.10,2014-03-05 13:44:00,
2014-03-05 07:59:00,27.1,15.0,30.20,ESE,119,1.0,2.0,61,0.00,,,0.00,weatherlink.com 1.10,2014-03-05 13:59:00,
2014-03-05 08:14:00,27.8,15.0,30.20,SE,127,2.0,3.0,60,0.00,,,0.00,weatherlink.com 1.10,2014-03-05 14:14:00,
2014-03-05 08:29:00,28.3,15.0,30.19,ESE,121,3.0,3.0,59,0.00,,,0.00,weatherlink.com 1.10,2014-03-05 14:29:00,
2014-03-05 08:44:00,29.1,16.0,30.20,ESE,115,3.0,3.0,59,0.00,,,0.00,weatherlink.com 1.10,2014-03-05 14:44:00,
2014-03-05 08:59:00,30.4,17.0,30.19,ESE,117,3.0,3.0,58,0.00,,,0.00,weatherlink.com 1.10,2014-03-05 14:59:00,
2014-03-05 09:14:00,31.8,18.0,30.20,ESE,103,2.0,4.0,57,0.00,,,0.00,weatherlink.com 1.10,2014-03-05 15:14:00,
2014-03-05 09:29:00,33.1,17.0,30.20,ESE,110,2.0,3.0,52,0.00,,,0.00,weatherlink.com 1.10,2014-03-05 15:29:00,
2014-03-05 09:44:00,34.1,16.0,30.20,ESE,110,2.0,3.0,48,0.00,,,0.00,weatherlink.com 1.10,2014-03-05 15:44:00,
2014-03-05 09:59:00,35.9,14.0,30.20,ESE,112,1.0,3.0,41,0.00,,,0.00,weatherlink.com 1.10,2014-03-05 15:59:00,
2014-03-05 10:14:00,37.2,15.0,30.20,SE,138,2.0,3.0,41,0.00,,,0.00,weatherlink.com 1.10,2014-03-05 16:14:00,
2014-03-05 10:29:00,37.6,16.0,30.20,ESE,120,1.0,2.0,42,0.01,,,0.01,weatherlink.com 1.10,2014-03-05 16:29:00,
2014-03-05 10:44:00,38.4,16.0,30.19,ESE,105,2.0,3.0,41,0.01,,,0.01,weatherlink.com 1.10,2014-03-05 16:44:00,
2014-03-05 11:00:00,39.8,18.0,30.20,SSW,210,1.0,3.0,42,0.01,,,0.01,weatherlink.com 1.10,2014-03-05 17:00:00,
2014-03-05 11:15:00,40.5,16.0,30.19,SE,133,2.0,4.0,37,0.01,,,0.01,weatherlink.com 1.10,2014-03-05 17:15:00,
2014-03-05 11:45:00,41.7,16.0,30.18,SE,124,1.0,3.0,35,0.00,,,0.01,weatherlink.com 1.10,2014-03-05 17:45:00,
2014-03-05 12:00:00,41.9,15.0,30.18,ESE,115,3.0,3.0,33,0.00,,,0.01,weatherlink.com 1.10,2014-03-05 18:00:00,
2014-03-05 12:15:00,42.8,16.0,30.18,East,96,1.0,2.0,34,0.00,,,0.01,weatherlink.com 1.10,2014-03-05 18:15:00,
2014-03-05 12:30:00,44.2,14.0,30.17,East,97,2.0,3.0,30,0.02,,,0.03,weatherlink.com 1.10,2014-03-05 18:30:00,
2014-03-05 12:45:00,44.4,14.0,30.16,ESE,109,3.0,4.0,29,0.04,,,0.05,weatherlink.com 1.10,2014-03-05 18:45:00,
2014-03-05 13:00:00,46.5,15.0,30.16,East,81,2.0,2.0,28,0.05,,,0.06,weatherlink.com 1.10,2014-03-05 19:00:00,
2014-03-05 13:15:00,47.3,14.0,30.15,ENE,71,1.0,2.0,26,0.06,,,0.08,weatherlink.com 1.10,2014-03-05 19:15:00,
2014-03-05 13:30:00,48.0,15.0,30.15,ESE,111,1.0,2.0,27,0.07,,,0.10,weatherlink.com 1.10,2014-03-05 19:30:00,
2014-03-05 13:45:00,48.0,14.0,30.14,NNW,340,0.0,2.0,25,0.07,,,0.12,weatherlink.com 1.10,2014-03-05 19:45:00,
2014-03-05 14:00:00,49.1,14.0,30.14,WNW,293,3.0,4.0,24,0.06,,,0.13,weatherlink.com 1.10,2014-03-05 20:00:00,
2014-03-05 14:15:00,48.0,16.0,30.14,WNW,301,1.0,3.0,28,0.07,,,0.15,weatherlink.com 1.10,2014-03-05 20:15:00,
2014-03-05 14:30:00,47.7,13.0,30.13,NNW,335,0.0,4.0,25,0.06,,,0.16,weatherlink.com 1.10,2014-03-05 20:30:00,
2014-03-05 14:45:00,48.1,13.0,30.13,ESE,103,0.0,2.0,24,0.05,,,0.17,weatherlink.com 1.10,2014-03-05 20:45:00,
2014-03-05 15:00:00,48.2,11.0,30.13,ESE,109,1.0,2.0,22,0.04,,,0.18,weatherlink.com 1.10,2014-03-05 21:00:00,
2014-03-05 15:15:00,48.1,11.0,30.14,SE,131,1.0,3.0,22,0.04,,,0.19,weatherlink.com 1.10,2014-03-05 21:15:00,
2014-03-05 15:30:00,48.1,12.0,30.14,WSW,245,0.0,2.0,23,0.04,,,0.20,weatherlink.com 1.10,2014-03-05 21:30:00,
2014-03-05 15:45:00,48.8,12.0,30.14,West,266,1.0,2.0,23,0.04,,,0.21,weatherlink.com 1.10,2014-03-05 21:45:00,
2014-03-05 16:00:00,48.6,13.0,30.14,SSW,207,1.0,1.0,24,0.02,,,0.21,weatherlink.com 1.10,2014-03-05 22:00:00,
2014-03-05 16:15:00,47.9,13.0,30.14,SSE,160,1.0,2.0,24,0.03,,,0.22,weatherlink.com 1.10,2014-03-05 22:15:00,
2014-03-05 16:30:00,47.3,14.0,30.14,SW,224,0.0,1.0,26,0.02,,,0.22,weatherlink.com 1.10,2014-03-05 22:30:00,
2014-03-05 16:45:00,46.6,14.0,30.14,WSW,252,0.0,1.0,27,0.02,,,0.23,weatherlink.com 1.10,2014-03-05 22:45:00,
2014-03-05 17:00:00,45.9,15.0,30.14,WSW,254,0.0,1.0,29,0.02,,,0.23,weatherlink.com 1.10,2014-03-05 23:00:00,
2014-03-05 17:15:00,45.1,15.0,30.14,West,277,0.0,1.0,30,0.01,,,0.23,weatherlink.com 1.10,2014-03-05 23:15:00,
2014-03-05 17:30:00,44.3,15.0,30.16,West,277,0.0,1.0,30,0.01,,,0.23,weatherlink.com 1.10,2014-03-05 23:30:00,
2014-03-05 17:45:00,43.8,14.0,30.16,SW,224,0.0,2.0,30,0.00,,,0.23,weatherlink.com 1.10,2014-03-05 23:45:00,
2014-03-05 18:00:00,43.1,14.0,30.17,WSW,257,0.0,1.0,31,0.01,,,0.24,weatherlink.com 1.10,2014-03-06 00:00:00,
2014-03-05 18:15:00,42.3,14.0,30.17,WSW,257,0.0,0.0,32,0.01,,,0.24,weatherlink.com 1.10,2014-03-06 00:15:00,
2014-03-05 18:30:00,42.0,15.0,30.17,WSW,257,0.0,1.0,33,0.01,,,0.24,weatherlink.com 1.10,2014-03-06 00:30:00,
2014-03-05 18:45:00,41.8,14.0,30.17,WSW,257,0.0,0.0,33,0.01,,,0.24,weatherlink.com 1.10,2014-03-06 00:45:00,
2014-03-05 19:00:00,41.6,17.0,30.17,ESE,118,1.0,3.0,37,0.00,,,0.24,weatherlink.com 1.10,2014-03-06 01:00:00,
2014-03-05 19:15:00,39.8,18.0,30.17,ESE,112,1.0,2.0,41,0.00,,,0.24,weatherlink.com 1.10,2014-03-06 01:15:00,
2014-03-05 19:30:00,40.3,17.0,30.18,ESE,111,0.0,0.0,39,0.00,,,0.24,weatherlink.com 1.10,2014-03-06 01:30:00,
2014-03-05 19:45:00,39.5,14.0,30.18,ESE,112,0.0,0.0,36,0.00,,,0.24,weatherlink.com 1.10,2014-03-06 01:45:00,
2014-03-05 20:00:00,40.3,15.0,30.18,ESE,111,0.0,1.0,35,0.00,,,0.24,weatherlink.com 1.10,2014-03-06 02:00:00,
2014-03-05 20:15:00,39.5,12.0,30.18,ESE,111,0.0,0.0,32,0.00,,,0.24,weatherlink.com 1.10,2014-03-06 02:15:00,
2014-03-05 20:30:00,39.5,10.0,30.18,ESE,111,0.0,0.0,29,0.00,,,0.24,weatherlink.com 1.10,2014-03-06 02:30:00,
2014-03-05 20:45:00,39.9,8.0,30.18,ESE,111,0.0,0.0,27,0.00,,,0.24,weatherlink.com 1.10,2014-03-06 02:45:00,
2014-03-05 21:00:00,40.4,9.0,30.19,ESE,111,0.0,0.0,27,0.00,,,0.24,weatherlink.com 1.10,2014-03-06 03:00:00,
2014-03-05 21:15:00,40.1,12.0,30.20,ESE,111,1.0,1.0,32,0.00,,,0.24,weatherlink.com 1.10,2014-03-06 03:15:00,
2014-03-05 21:30:00,38.5,16.0,30.20,ESE,113,2.0,3.0,40,0.00,,,0.24,weatherlink.com 1.10,2014-03-06 03:30:00,
2014-03-05 21:45:00,38.5,15.0,30.20,ESE,120,2.0,3.0,39,0.00,,,0.24,weatherlink.com 1.10,2014-03-06 03:45:00,
2014-03-05 22:00:00,38.0,16.0,30.20,ESE,118,2.0,3.0,41,0.00,,,0.24,weatherlink.com 1.10,2014-03-06 04:00:00,
2014-03-05 22:15:00,37.5,17.0,30.20,ESE,115,2.0,3.0,44,0.00,,,0.24,weatherlink.com 1.10,2014-03-06 04:15:00,
2014-03-05 22:30:00,37.2,18.0,30.20,SE,127,1.0,3.0,45,0.00,,,0.24,weatherlink.com 1.10,2014-03-06 04:30:00,
2014-03-05 22:45:00,36.9,17.0,30.21,ESE,110,1.0,1.0,44,0.00,,,0.24,weatherlink.com 1.10,2014-03-06 04:45:00,
2014-03-05 23:00:00,36.6,17.0,30.20,ESE,110,2.0,3.0,45,0.00,,,0.24,weatherlink.com 1.10,2014-03-06 05:00:00,
2014-03-05 23:15:00,36.4,18.0,30.20,ENE,70,1.0,3.0,47,0.00,,,0.24,weatherlink.com 1.10,2014-03-06 05:15:00,
2014-03-05 23:30:00,36.0,19.0,30.21,East,99,1.0,3.0,50,0.00,,,0.24,weatherlink.com 1.10,2014-03-06 05:30:00,
2014-03-05 23:45:00,35.0,19.0,30.21,ESE,106,0.0,0.0,52,0.00,,,0.24,weatherlink.com 1.10,2014-03-06 05:45:00,